Weather in Pronkino

Russia / Orenburg Oblast     52°42′19″N   52°54′27″E
В апреле 2022 года жителям России запретили посещать сайт meteo.paraplan.net по решению Генеральной прокуратуры. Аудитория сайта уменьшилась в 10 раз. Владельцы сайта не видят смысла в поддержке погодного сервера в таких условиях. Сайт будет закрыт в октябре.
temp.,
°C
wind,
m/s
gust,
m/s
humid.,
%
clouds,
%
prec.,
mm/h
press.,
hPa
HPBL,
m
4 october, tue
tue423:00+11sse514370 0.0 1025379
02:00+9se4133780 0.0 1027309
05:00+9se5123599 0.0 1027306
08:00+8se5133478 0.0 1028301
11:00+12sse7122791 0.0 1028541
14:00+14sse71022100 0.0 1029890
17:00+14sse69259 0.0 10291018
20:00+10se41132100 0.0 1029260
5 october, wed
wed523:00+10se41331100 0.0 1029378
02:00+10sse41230100 0.0 1029322
05:00+10se51226100 0.0 1028382
08:00+9sse61428100 0.0 1028372
11:00+10sse61327100 0.0 1028467
14:00+12sse61226100 0.0 1027476
17:00+13sse61225100 0.0 1026535
20:00+12s61235100 0.1 1027578
6 october, thu
thu623:00+11se5123381 0.3 1024280
02:00+12sse51429100 0.0 1022398
05:00+11s61431100 0.0 1020322
08:00+12s71331100 0.0 1019427
11:00+9s5972100 1.3 1019429
14:00+12ssw57680 1.0 1019680
17:00+14wsw694998 1.0 10171048
20:00+11wnw3658100 0.0 1019186
7 october, fri
fri723:00+11sw1161100 0.0 101919
02:00+9wnw3670100 0.1 1018411
05:00+7nw368896 0.4 1019287
08:00+7wnw3777100 0.1 1019599
11:00+8wnw456715 0.1 1020823
14:00+11w565198 0.0 10201588
17:00+11w575027 0.0 10191470
20:00+10wsw4857100 0.0 1020553
8 october, sat
sat823:00+10wsw61057100 0.0 1020654
02:00+10w5117993 0.1 1020543
05:00+10wnw71171100 0.1 10211088
08:00+10wnw59586 0.0 1023415
11:00+12wnw69570 0.0 1025847
14:00+15wnw67470 0.0 10251122
17:00+15wnw56440 0.0 10261166
20:00+11wnw22605 0.0 102718